This is the latest recevied weather packets stored in our database for station/object KG5WBN. If no packets are shown the sender has not sent any weather packets the latest 10 day(s).
| Time | Temp. | Humidity | Pressure | Rain* | Wind** | Luminosity | Snow |
|---|---|---|---|---|---|---|---|
| 1778103549 | 30.56° C | 57% | 1010.5 hPa | 0 mm | - | 315 W/m² | - |
| 1778103247 | 30° C | 57% | 1010.5 hPa | 0 mm | - | 310 W/m² | - |
| 1778102944 | 30.56° C | 55% | 1010.5 hPa | 0 mm | - | 318 W/m² | - |
| 1778102639 | 30.56° C | 55% | 1010.5 hPa | 0 mm | - | 317 W/m² | - |
| 1778102334 | 30.56° C | 55% | 1010.8 hPa | 0 mm | - | 322 W/m² | - |
| 1778102031 | 30.56° C | 55% | 1010.8 hPa | 0 mm | - | 341 W/m² | - |
| 1778101728 | 30.56° C | 55% | 1010.5 hPa | 0 mm | - | 183 W/m² | - |
| 1778101425 | 30.56° C | 54% | 1010.5 hPa | 0 mm | - | 210 W/m² | - |
| 1778101122 | 30.56° C | 55% | 1010.8 hPa | 0 mm | - | 347 W/m² | - |
| 1778100818 | 30° C | 58% | 1010.8 hPa | 0 mm | - | 356 W/m² | - |
| 1778100514 | 30.56° C | 58% | 1010.8 hPa | 0 mm | - | 333 W/m² | - |
| 1778100212 | 30.56° C | 59% | 1010.8 hPa | 0 mm | - | 164 W/m² | - |
| 1778099910 | 29.44° C | 62% | 1010.8 hPa | 0 mm | - | 373 W/m² | - |
| 1778099607 | 28.89° C | 64% | 1010.8 hPa | 0 mm | - | 198 W/m² | - |
| 1778099303 | 30.56° C | 59% | 1010.8 hPa | 0 mm | - | 167 W/m² | - |
| 1778099001 | 30.56° C | 41% | 1011.2 hPa | 0 mm | - | 212 W/m² | - |
| 1778098697 | 30.56° C | 40% | 1011.5 hPa | 0 mm | - | 148 W/m² | - |
| 1778098395 | 31.11° C | 38% | 1011.5 hPa | 0 mm | - | 257 W/m² | - |
| 1778098091 | 31.11° C | 37% | 1011.5 hPa | 0 mm | - | 296 W/m² | - |
| 1778097787 | 31.67° C | 36% | 1011.5 hPa | 0 mm | - | 357 W/m² | - |
| 1778097483 | 31.11° C | 37% | 1011.9 hPa | 0 mm | - | 298 W/m² | - |
| 1778097181 | 31.11° C | 37% | 1011.9 hPa | 0 mm | - | 239 W/m² | - |
| 1778096878 | 31.11° C | 38% | 1011.5 hPa | 0 mm | - | 222 W/m² | - |
| 1778096574 | 31.11° C | 38% | 1011.9 hPa | 0 mm | - | 203 W/m² | - |
| 1778096272 | 30.56° C | 37% | 1011.9 hPa | 0 mm | - | 257 W/m² | - |
* Rain latest hour (hover to see other rain measurements)
** Current wind speed in m/s (hover to see current wind gust speed)